Location: Santiago
(33.4378°S, 70.6505°W)
Time: 14:21:23
(UTC+00:00)

ISS - Pass Details

Date: 06 April 2024
Orbit: 410 x 417 km, 51.6° (Epoch: 25 April)

Event Time Altitude Azimuth Distance (km) Brightness Sun altitude
Exits shadow 09:29:12 16° 191° (SSW) 1,198 -1.5 -19.5°
Maximum altitude 09:31:08 26° 144° (SE) 872 -1.8 -19.1°
Drops below altitude 10° 09:34:02 10° 84° (E) 1,503 0.3 -18.5°
Sets 09:36:20 0° 71° (ENE) 2,358 1.3 -18.0°
